TimeCST,TemperatureF,Dew PointF,Humidity,Sea Level PressureIn,VisibilityMPH,Wind Direction,Wind SpeedMPH,Gust SpeedMPH,PrecipitationIn,Events,Conditions,WindDirDegrees,DateUTC
12:15 AM,32.2,31.6,98,30.15,10.0,NW,4.6,-,N/A,,Clear,310,2013-11-05 06:15:00
12:35 AM,31.6,30.4,95,30.14,10.0,Calm,Calm,-,N/A,,Clear,0,2013-11-05 06:35:00
12:55 AM,31.8,30.0,93,30.15,10.0,Calm,Calm,-,N/A,,Clear,0,2013-11-05 06:55:00
1:15 AM,32.9,30.6,91,30.15,10.0,Calm,Calm,-,N/A,,Clear,0,2013-11-05 07:15:00
1:35 AM,32.2,30.2,92,30.15,10.0,Calm,Calm,-,N/A,,Clear,0,2013-11-05 07:35:00
1:55 AM,32.0,29.8,92,30.14,10.0,Calm,Calm,-,N/A,,Clear,0,2013-11-05 07:55:00
2:15 AM,32.0,29.8,92,30.14,10.0,Calm,Calm,-,N/A,,Clear,0,2013-11-05 08:15:00
2:35 AM,32.0,30.2,93,30.14,10.0,Calm,Calm,-,N/A,,Clear,0,2013-11-05 08:35:00
2:55 AM,32.0,30.4,94,30.14,10.0,Calm,Calm,-,N/A,,Clear,0,2013-11-05 08:55:00
3:15 AM,32.9,30.6,91,30.12,10.0,NNW,3.5,-,N/A,,Clear,330,2013-11-05 09:15:00
3:35 AM,32.7,31.1,94,30.13,10.0,Calm,Calm,-,N/A,,Scattered Clouds,0,2013-11-05 09:35:00
3:55 AM,33.3,32.0,95,30.13,10.0,Calm,Calm,-,N/A,,Mostly Cloudy,0,2013-11-05 09:55:00
4:15 AM,36.5,33.1,87,30.13,10.0,ENE,3.5,-,N/A,,Overcast,60,2013-11-05 10:15:00
4:35 AM,39.0,34.2,83,30.14,10.0,Calm,Calm,-,N/A,,Overcast,0,2013-11-05 10:35:00
4:55 AM,40.1,34.7,81,30.13,10.0,Calm,Calm,-,N/A,,Overcast,0,2013-11-05 10:55:00
5:15 AM,40.5,34.7,80,30.13,10.0,NE,3.5,-,N/A,,Overcast,40,2013-11-05 11:15:00
5:35 AM,40.8,34.9,79,30.11,10.0,NE,5.8,-,N/A,,Overcast,50,2013-11-05 11:35:00
5:55 AM,41.2,35.1,79,30.10,10.0,NE,5.8,-,N/A,,Overcast,50,2013-11-05 11:55:00
6:15 AM,41.7,35.4,78,30.09,10.0,ENE,5.8,-,N/A,,Overcast,60,2013-11-05 12:15:00
6:35 AM,42.1,35.6,78,30.10,10.0,ENE,9.2,-,N/A,,Overcast,60,2013-11-05 12:35:00
6:55 AM,41.9,35.8,79,30.09,10.0,ENE,6.9,-,N/A,,Overcast,70,2013-11-05 12:55:00
7:15 AM,42.1,35.6,78,30.10,10.0,ENE,3.5,-,N/A,,Overcast,70,2013-11-05 13:15:00
7:35 AM,42.1,35.6,78,30.08,10.0,ENE,10.4,-,N/A,,Overcast,70,2013-11-05 13:35:00
7:55 AM,42.3,35.8,78,30.08,10.0,ENE,9.2,16.1,N/A,,Overcast,70,2013-11-05 13:55:00
8:15 AM,41.9,37.2,83,30.08,7.0,NE,8.1,-,N/A,,Light Drizzle,50,2013-11-05 14:15:00
8:35 AM,41.9,37.0,83,30.07,10.0,ENE,5.8,-,N/A,,Overcast,60,2013-11-05 14:35:00
8:55 AM,41.9,37.8,85,30.05,4.0,ENE,15.0,-,N/A,,Drizzle,60,2013-11-05 14:55:00
9:15 AM,41.0,39.6,95,30.04,4.0,ENE,10.4,-,0.01,Rain,Rain,60,2013-11-05 15:15:00
9:35 AM,41.0,40.5,98,30.04,5.0,ENE,6.9,16.1,0.01,Rain,Light Rain,60,2013-11-05 15:35:00
9:55 AM,41.0,41.0,100,30.04,4.0,North,5.8,-,0.05,Rain,Rain,10,2013-11-05 15:55:00
10:15 AM,40.6,40.6,100,30.06,1.8,NNW,4.6,-,0.06,Rain,Heavy Rain,340,2013-11-05 16:15:00
10:35 AM,40.1,40.1,100,30.06,1.2,NNW,8.1,-,0.19,,Overcast,340,2013-11-05 16:35:00
10:55 AM,39.7,39.7,100,30.04,1.8,North,9.2,-,0.28,Rain,Rain,360,2013-11-05 16:55:00
11:15 AM,39.7,39.7,100,30.02,4.0,North,9.2,18.4,0.04,Rain,Rain,10,2013-11-05 17:15:00
11:35 AM,39.6,39.6,100,30.00,4.0,North,9.2,17.3,0.08,Rain,Rain,10,2013-11-05 17:35:00
11:55 AM,40.1,40.1,100,29.97,3.0,NNE,12.7,17.3,0.15,Rain,Rain,20,2013-11-05 17:55:00
12:15 PM,40.1,40.1,100,29.96,4.0,NNE,11.5,16.1,0.07,Rain,Rain,30,2013-11-05 18:15:00
12:35 PM,40.3,40.3,100,29.94,7.0,NNE,12.7,21.9,0.10,Rain,Light Rain,30,2013-11-05 18:35:00
12:55 PM,40.3,40.3,100,29.93,7.0,NNE,9.2,18.4,0.12,Rain,Rain,30,2013-11-05 18:55:00
1:15 PM,40.3,40.3,100,29.92,10.0,NE,15.0,20.7,0.01,Rain,Light Rain,40,2013-11-05 19:15:00
1:35 PM,40.3,40.3,100,29.90,5.0,NE,12.7,19.6,0.05,Rain,Rain,40,2013-11-05 19:35:00
1:55 PM,40.8,40.8,100,29.88,10.0,NE,12.7,20.7,0.06,Rain,Light Rain,40,2013-11-05 19:55:00
2:15 PM,41.0,41.0,100,29.87,7.0,NE,13.8,18.4,0.01,,Light Drizzle,40,2013-11-05 20:15:00
2:35 PM,41.0,41.0,100,29.87,3.0,NNE,9.2,-,0.03,,Heavy Drizzle,20,2013-11-05 20:35:00
2:55 PM,40.6,40.6,100,29.87,2.0,NNE,9.2,-,0.07,Rain,Heavy Rain,20,2013-11-05 20:55:00
3:15 PM,40.1,40.1,100,29.87,4.0,NNE,11.5,20.7,0.03,Rain,Rain,20,2013-11-05 21:15:00
3:35 PM,39.7,39.7,100,29.87,2.0,NNE,8.1,19.6,0.07,Rain,Rain,30,2013-11-05 21:35:00
3:55 PM,39.6,39.6,100,29.89,1.2,North,10.4,17.3,0.13,Rain,Rain,350,2013-11-05 21:55:00
4:15 PM,38.5,38.5,100,29.89,4.0,North,11.5,18.4,0.03,Rain,Rain,350,2013-11-05 22:15:00
4:35 PM,38.3,38.3,100,29.90,5.0,North,12.7,20.7,0.04,Rain,Rain,360,2013-11-05 22:35:00
4:55 PM,37.8,37.8,100,29.89,7.0,North,13.8,21.9,0.04,,Light Drizzle,10,2013-11-05 22:55:00
5:15 PM,37.8,37.8,100,29.89,10.0,North,12.7,19.6,N/A,Rain,Light Rain,10,2013-11-05 23:15:00
5:35 PM,37.6,37.6,100,29.92,7.0,North,8.1,20.7,0.01,Rain,Light Rain,350,2013-11-05 23:35:00
5:55 PM,37.4,37.4,100,29.91,4.0,North,10.4,18.4,0.05,Rain,Light Rain,360,2013-11-05 23:55:00
6:15 PM,37.2,37.2,100,29.92,10.0,North,12.7,18.4,0.01,,Overcast,350,2013-11-06 00:15:00
6:35 PM,36.7,36.7,100,29.96,10.0,NNW,12.7,17.3,0.01,Rain,Light Rain,330,2013-11-06 00:35:00
6:55 PM,36.5,36.5,100,29.94,7.0,NNW,10.4,20.7,0.01,,Light Drizzle,340,2013-11-06 00:55:00
7:15 PM,35.6,35.6,100,29.96,4.0,NNW,16.1,23.0,N/A,,Overcast,340,2013-11-06 01:15:00
7:35 PM,35.4,35.4,100,29.97,4.0,NNW,17.3,24.2,N/A,,Overcast,330,2013-11-06 01:35:00
7:55 PM,34.9,34.9,100,29.96,5.0,NNW,11.5,21.9,N/A,,Overcast,340,2013-11-06 01:55:00
8:15 PM,34.7,34.7,100,29.97,5.0,NNW,13.8,20.7,N/A,,Overcast,340,2013-11-06 02:15:00
8:35 PM,34.3,34.3,100,29.98,10.0,NNW,12.7,20.7,N/A,,Overcast,340,2013-11-06 02:35:00
8:55 PM,34.7,34.7,100,29.98,10.0,North,17.3,27.6,N/A,,Overcast,350,2013-11-06 02:55:00
9:15 PM,35.4,34.9,98,30.00,10.0,NNW,16.1,23.0,N/A,,Overcast,340,2013-11-06 03:15:00
9:35 PM,35.4,35.4,100,30.00,5.0,NNW,13.8,27.6,N/A,,Overcast,340,2013-11-06 03:35:00
9:55 PM,35.4,35.4,100,30.00,5.0,North,15.0,24.2,N/A,,Overcast,350,2013-11-06 03:55:00
10:15 PM,35.1,35.1,100,30.02,5.0,NNW,13.8,23.0,N/A,,Overcast,340,2013-11-06 04:15:00
10:35 PM,34.9,34.9,100,30.03,7.0,NNW,16.1,23.0,N/A,,Overcast,330,2013-11-06 04:35:00
10:55 PM,34.7,34.7,100,30.05,5.0,NNW,17.3,25.3,N/A,,Overcast,330,2013-11-06 04:55:00
11:15 PM,34.7,34.7,100,30.05,5.0,NNW,12.7,19.6,N/A,,Light Drizzle,340,2013-11-06 05:15:00
11:35 PM,34.2,34.2,100,30.06,3.0,NW,18.4,23.0,N/A,Snow,Light Snow,320,2013-11-06 05:35:00
11:55 PM,33.8,33.8,100,30.06,2.5,NW,20.7,24.2,N/A,Snow,Light Snow,320,2013-11-06 05:55:00